Location: Drocourt
(49.0571°N, 1.7669°E)
Time: 14:01:33
(UTC+00:00)

SR - Pass Details

Date: 21 April 2024
Orbit: 579 x 859 km, 66.7° (Epoch: 28 May)

Event Time Altitude Azimuth Distance (km) Brightness Sun altitude
Rises 09:12:30 0° 326° (NW) 3,021 ? 40.6°
Reaches altitude 10° 09:14:57 10° 331° (NNW) 2,060 ? 40.9°
Maximum altitude 09:19:28 52° 48° (NE) 774 ? 41.5°
Drops below altitude 10° 09:23:41 10° 126° (SE) 1,928 ? 42.1°
Sets 09:25:54 0° 131° (SE) 2,806 ? 42.4°
